Regional Weather Roundup
Issued by NWS Charleston, SC

Current Version | Previous Version | Graphics & Text | Print | Product List | Glossary On
Versions: 1 2 3 4 5 6 7 8 9 10 11 12 13 14 15 16 17 18 19 20 21 22 23 24 25 26 27 28 29 30 31 32 33 34 35 36 37 38 39 40 41 42 43 44 45 46 47 48 49 50
000
ASUS42 KCHS 251727
RWRCHS

REGIONAL WEATHER ROUNDUP
NATIONAL WEATHER SERVICE CHARLESTON SC
100 PM EDT SAT APR 25 2015

NOTE: "FAIR" INDICATES FEW OR NO CLOUDS BELOW 12,000 FEET WITH NO
SIGNIFICANT WEATHER AND/OR OBSTRUCTIONS TO VISIBILITY.

NOT ALL STATIONS ARE QUALITY CONTROLLED BY THE NATIONAL
WEATHER SERVICE. USE DATA WITH CAUTION...ESPECIALLY
DEWPOINT OBSERVATIONS.

SCZ027-030-031-034>040-042>050-251800-
...SOUTHEAST SOUTH CAROLINA...

CITY           SKY/WX    TMP DP  RH WIND       PRES   REMARKS
N CHARLESTON   LGT RAIN  67  63  87 S12       29.81F
WATERFRONT PRK   N/A     66 N/A N/A S20G31      N/A
MOUNT PLEASANT PTSUNNY   66  64  94 MISG      29.82F FOG
PINOPOLIS      NOT AVBL
MONCKS CORNER  CLOUDY    70  64  83 S8        29.81F
SUMMERVILLE    CLOUDY    68  66  94 SE5       29.81F
BEAUFORT MCAS  CLOUDY    68  67  96 S12G22    29.80R
BEAUFORT ARPT  LGT RAIN  66  66 100 SE13G24   29.77F
HILTON HEAD IS HVY RAIN  66  66 100 E8        29.82F FOG
WALTERBORO     CLOUDY    68  64  88 S12       29.80F
ALLENDALE      PTSUNNY   72  66  83 S13       29.78F

...SOUTHERN MIDLANDS AND PEE DEE...

CITY           SKY/WX    TMP DP  RH WIND       PRES   REMARKS
GEORGETOWN     NOT AVBL
KINGSTREE      NOT AVBL
ORANGEBURG     CLOUDY    68  63  84 S14       29.80F
BARNWELL       CLOUDY    70  66  88 S8        29.78F
AIKEN          CLOUDY    64  61  88 S8        29.80F
MANNING        CLOUDY    66  48  52 S6        29.79F
COLUMBIA       CLOUDY    67  62  84 S10       29.78F
SUMTER         CLOUDY    68  63  83 S12       29.77F
FLORENCE       CLOUDY    63  58  83 S10       29.82F
MYRTLE BEACH   LGT RAIN  64  57  77 SE7       29.89F
N MYRTLE BEACH LGT RAIN  63  56  78 SW5       29.88F

$$

GAZ063-065-086>088-099>101-113>116-118-119-134>141-150-251800-
...SOUTHEAST GEORGIA...

CITY           SKY/WX    TMP DP  RH WIND       PRES   REMARKS
SAVANNAH ARPT  CLOUDY    68  66  94 SE10      29.82F
HUNTER AAF     CLOUDY    68  68 100 SE7       29.82F
FORT STEWART   LGT RAIN  68  66  94 S5        29.80F
STATESBORO       N/A     71  71 100 S13       29.80F
SYLVANIA       CLOUDY    71  68  90 S10       29.81S
CLAXTON        CLOUDY    68  68 100 S7        29.81F

...CSRA...CENTRAL AND FAR SOUTHEAST GEORGIA...

CITY           SKY/WX    TMP DP  RH WIND       PRES   REMARKS
THOMSON        CLOUDY    70  67  90 CALM      29.81F
AUGUSTA-BUSH   CLOUDY    67  64  90 S12       29.78F
AUGUSTA-DANIEL CLOUDY    67  63  87 S8        29.78F
SWAINSBORO     NOT AVBL
VIDALIA        CLOUDY    70  68  94 SE3       29.80F
EASTMAN        CLOUDY    74  74  99 SW6       29.81F
HAZLEHURST     FAIR      74  73  96 S3        29.78F
ALMA           CLOUDY    75  68  78 SW13      29.80F
WAYCROSS       CLOUDY    78  75  89 SW14      29.81F
JESUP          CLOUDY    73  72  94 CALM      29.82F
BAXLEY         CLOUDY    75  70  83 SW8       29.79F
BRUNSWICK      CLOUDY    75  70  83 SW7       29.85F
SAINT SIMONS   CLOUDY    74  69  85 SW8       29.85F

$$

SCZ027-028-034-036>038-045-046-048>050-GAZ119-141-251800-
...LAKE AND SUPPLEMENTAL COASTAL OBSERVATIONS...

STATION/POSITION TIME  TEMP    WIND        PRES    WAVE   SWELL
                       AIR SEA DIR/SP/G            HT/PER HT/PER/DIR
                 (UTC) (F)     (DEG/KT/KT) (MB)    (FT/S) (FT/S/D)
UPR LAKE MARION  NOT AVBL
WINYAH BAY       1645   70     160/  9     1010.0F
LAKE MURRAY      1600   64     170/  9/ 10 1009.1F
ACE BASIN NERRS  NOT AVBL
FORT PULASKI     1700   67 70  100/ 11/ 15 1011.2F
SAPELO ISLAND    1700   72     200/  8     1011.0S

$$

ANZ835-935-AMZ111-154-330-350-352-354-370-450-454-472-251800-
...C-MAN AND BUOY OBSERVATIONS...

STATION/POSITION TIME  TEMP    WIND        PRES    WAVE   SWELL
                       AIR SEA DIR/SP/G            HT/PER HT/PER/DIR
                 (UTC) (F)     (DEG/KT/KT) (MB)    (FT/S) (FT/S/D)
BUOY 41004       1650   71 72  180/ 14/ 16 1012.9F   3/ 9   2/ 9
BUOY 41008       1650   70 69  200/ 14/ 16 1011.6F   3/ 8   2/ 70/ 8
FOLLY BEACH CMAN 1700   66     170/ 36/ 41 1006.9F
CAPERS NEARSHORE 1608   69     190/ 14/ 17   N/A
FRIPP NEARSHORE  1600   65      CALM  /  2 1014.1R


STATION/POSITION TIME  TEMP    WIND        PRES    WAVE   SWELL
                       AIR SEA DIR/SP/G            HT/PER HT/PER/DIR
                 (UTC) (F)     (DEG/KT/KT) (MB)    (FT/S) (FT/S/D)
5E ST. MARYS GA  1621      70                N/A     3/ 8   2/120/13
FRYING PAN BUOY  1650   69 71  210/  8/ 10 1012.9F   4/ 9   3/ 70/ 9
BUOY 41025       1650   63 72  310/ 10/ 12 1012.4F   3/ 8   2/ 70/ 8
CAPE LOOKOUT NC  1700   66     250/  8/ 11 1012.0F
BUOY 41002       1650   66 71  200/ 14/ 17 1015.4F   5/ 9   5/ 20/ 9
BUOY 41010       1620   78 80  180/ 12/ 16 1014.8R
ST AUGUSTINE FL  1700   82 70  230/ 12/ 17 1012.3F


$$



USA.gov is the U.S. government's official web portal to all federal, state and local government web resources and services.